Location: Fayetteville
(35.0530°N, 78.8790°W)
Time: 08:19:58
(UTC-04:00)

ISS - Visible Passes

Search period start: 03 July 2015 00:00
Search period end: 13 July 2015 00:00
Orbit: 398 x 403 km, 51.6° (Epoch: 03 July)

Date Brightness Start Highest point End Pass type
(mag) Time Alt. Az. Time Alt. Az. Time Alt. Az.
10 Jul -2.3 05:38:25 10° SSW 05:41:28 40° SE 05:44:32 10° ENE visible
11 Jul -1.1 04:46:20 13° SSE 04:48:01 18° SE 04:50:22 10° E visible
12 Jul -3.3 05:27:36 12° SW 05:30:36 72° NW 05:33:50 10° NE visible
